Time,TemperatureF,DewpointF,PressureIn,WindDirection,WindDirectionDegrees,WindSpeedMPH,WindSpeedGustMPH,Humidity,HourlyPrecipIn,Conditions,Clouds,dailyrainin,SoftwareType,DateUTC
2016-02-12 00:04:00,5.0,2.0,29.91,North,0,3.0,6.0,88,-99.99,,,-99.99,,2016-02-12 05:04:00,
2016-02-12 00:13:00,5.0,2.0,29.91,ESE,112,0.0,1.0,88,-99.99,,,-99.99,,2016-02-12 05:13:00,
2016-02-12 00:24:00,4.0,1.0,29.92,WSW,248,4.0,6.0,88,-99.99,,,-99.99,,2016-02-12 05:24:00,
2016-02-12 00:47:00,4.0,1.0,29.93,WSW,248,3.0,10.0,87,-99.99,,,-99.99,,2016-02-12 05:47:00,
2016-02-12 00:57:00,3.0,0.0,29.94,SSW,202,1.0,3.0,87,-99.99,,,-99.99,,2016-02-12 05:57:00,
2016-02-12 01:05:00,3.0,0.0,29.94,SSW,202,1.0,3.0,87,-99.99,,,-99.99,,2016-02-12 06:05:00,
2016-02-12 01:13:00,3.0,0.0,29.94,NNW,338,3.0,6.0,87,-99.99,,,-99.99,,2016-02-12 06:13:00,
2016-02-12 01:24:00,3.0,0.0,29.95,SW,225,2.0,3.0,87,-99.99,,,-99.99,,2016-02-12 06:24:00,
2016-02-12 01:36:00,2.0,-1.0,29.96,SSE,158,1.0,2.0,87,-99.99,,,-99.99,,2016-02-12 06:36:00,
2016-02-12 01:44:00,2.0,-1.0,29.96,SSE,158,1.0,2.0,87,-99.99,,,-99.99,,2016-02-12 06:44:00,
2016-02-12 01:55:00,2.0,-1.0,29.97,West,270,1.0,2.0,88,-99.99,,,-99.99,,2016-02-12 06:55:00,
2016-02-12 02:04:00,1.0,-2.0,29.97,SSE,158,2.0,3.0,88,-99.99,,,-99.99,,2016-02-12 07:04:00,
2016-02-12 02:13:00,1.0,-2.0,29.97,ENE,68,3.0,6.0,88,-99.99,,,-99.99,,2016-02-12 07:13:00,
2016-02-12 02:24:00,1.0,-2.0,29.97,ENE,68,3.0,6.0,88,-99.99,,,-99.99,,2016-02-12 07:24:00,
2016-02-12 02:34:00,1.0,-2.0,29.97,ENE,68,3.0,6.0,88,-99.99,,,-99.99,,2016-02-12 07:34:00,
2016-02-12 02:44:00,1.0,-2.0,29.97,ENE,68,3.0,6.0,88,-99.99,,,-99.99,,2016-02-12 07:44:00,
2016-02-12 05:55:00,-3.0,-5.0,30.05,SSE,158,0.0,0.0,90,-99.99,,,-99.99,,2016-02-12 10:55:00,
2016-02-12 06:06:00,-3.0,-5.0,30.05,SSE,158,0.0,1.0,90,-99.99,,,-99.99,,2016-02-12 11:06:00,
2016-02-12 06:13:00,-3.0,-5.0,30.06,South,180,0.0,0.0,90,-99.99,,,-99.99,,2016-02-12 11:13:00,
2016-02-12 06:23:00,-3.0,-5.0,30.06,ESE,112,0.0,0.0,90,-99.99,,,-99.99,,2016-02-12 11:23:00,
2016-02-12 06:34:00,-3.0,-5.0,30.06,ESE,112,0.0,0.0,90,-99.99,,,-99.99,,2016-02-12 11:34:00,
2016-02-12 06:44:00,-3.0,-5.0,30.06,ESE,112,0.0,0.0,90,-99.99,,,-99.99,,2016-02-12 11:44:00,
2016-02-12 06:55:00,-3.0,-5.0,30.06,ESE,112,0.0,0.0,90,-99.99,,,-99.99,,2016-02-12 11:55:00,
2016-02-12 07:14:00,-4.0,-6.0,30.09,South,180,0.0,0.0,92,-99.99,,,-99.99,,2016-02-12 12:14:00,
2016-02-12 07:24:00,-4.0,-6.0,30.09,South,180,0.0,0.0,91,-99.99,,,-99.99,,2016-02-12 12:24:00,
2016-02-12 07:34:00,-3.0,-5.0,30.09,SSW,202,1.0,1.0,92,-99.99,,,-99.99,,2016-02-12 12:34:00,
2016-02-12 07:46:00,-3.0,-5.0,30.09,SSW,202,0.0,1.0,93,-99.99,,,-99.99,,2016-02-12 12:46:00,
2016-02-12 07:55:00,-2.0,-4.0,30.10,SSW,202,0.0,-999.0,93,-99.99,,,-99.99,,2016-02-12 12:55:00,
2016-02-12 08:11:00,-1.0,-3.0,30.10,South,180,1.0,2.0,93,-99.99,,,-99.99,,2016-02-12 13:11:00,
2016-02-12 08:23:00,0.0,-2.0,30.10,SSW,202,2.0,5.0,93,-99.99,,,-99.99,,2016-02-12 13:23:00,
2016-02-12 08:34:00,1.0,-1.0,30.10,SSW,202,1.0,3.0,92,-99.99,,,-99.99,,2016-02-12 13:34:00,
2016-02-12 08:44:00,2.0,0.0,30.10,WSW,248,1.0,3.0,91,-99.99,,,-99.99,,2016-02-12 13:44:00,
2016-02-12 08:55:00,3.0,1.0,30.10,SW,225,1.0,5.0,91,-99.99,,,-99.99,,2016-02-12 13:55:00,
2016-02-12 09:13:00,5.0,2.0,30.11,West,270,2.0,5.0,89,-99.99,,,-99.99,,2016-02-12 14:13:00,
2016-02-12 09:24:00,6.0,3.0,30.11,NW,315,4.0,7.0,87,-99.99,,,-99.99,,2016-02-12 14:24:00,